#timestamp,LO_Frequency,Hit 
1498622415.6,286047006.2,N
1498622435.5,286047006.4,N
1498622455.3,286047006.6,N
1498622475.1,286047006.4,N
1498622495.9,286047008.5,N
1498622515.7,286047010.4,N
1498622535.5,286047007.9,N
1498622555.4,286047007.9,N
1498622575.2,286047010.3,N
1498622595.0,286047008.1,N
1498622595.9,286047008.1,N
1498622615.8,286047008.2,N
1498622635.6,286047008.5,N
1498622655.4,286047010.4,N
1498622675.3,286047008.8,N
1498622695.1,286047009.9,N
1498622696.0,286047009.9,N
1498622715.8,286047010.7,N
1498622735.7,286047008.0,N
1498622755.5,286047012.1,N
1498622775.3,286047011.2,N
1498622795.2,286047010.2,N
1498622815.9,286047007.7,N
1498622835.7,286047009.3,N
1498622855.5,286047010.1,N
1498622875.4,286047010.1,N
1498622895.2,286047010.6,N
1498622915.0,286047009.8,N
1498622915.9,286047009.8,N
1498622935.8,286047009.5,N
1498622955.6,286047012.3,N
1498622975.4,286047009.3,N
1498622995.3,286047009.7,N
1498623015.1,286047008.3,N
1498623035.8,286047010.7,N
1498623055.7,286047010.8,N
1498623075.5,286047010.7,N
1498623095.3,286047009.8,N
1498623115.2,286047011.8,N
1498623135.9,286047010.3,N
1498623155.7,286047009.5,N
1498623175.6,286047009.6,N
1498623195.4,286047008.1,N
1498623215.2,286047008.0,N
1498623235.0,286047006.2,N
1498623235.9,286047006.2,N
1498623255.8,286047006.5,N
1498623275.6,286047008.6,N
1498623295.4,286047007.8,N
1498623315.3,286047008.0,N
1498623335.1,286047008.6,N
1498623355.8,286047008.0,N
1498623375.7,286047008.7,N
1498623395.5,286047009.1,N
1498623415.3,286047008.7,N
1498623435.2,286047008.7,N
1498623455.9,286047012.3,N
1498623475.7,286047011.3,N
1498623495.6,286047012.1,N
1498623515.4,286047012.6,N
1498623535.2,286047012.6,N
1498623555.0,286047011.2,N
1498623556.0,286047011.2,N
1498623575.2,286047009.7,N
1498623595.9,286047010.8,N
1498623615.7,286047008.3,N
1498623635.6,286047010.6,N
1498623655.4,286047010.7,N
1498623675.2,286047008.0,N
1498623695.0,286047007.9,N
1498623696.0,286047007.9,N
1498623715.8,286047007.7,N
1498623735.6,286047012.2,N
1498623755.4,286047010.6,N
1498623775.3,286047011.0,N
1498623795.1,286047012.2,N
1498623815.8,286047012.2,N
1498623835.7,286047013.7,N
1498623855.5,286047015.4,N
1498623875.3,286047013.3,N
1498623895.2,286047011.2,N
1498623915.9,286047011.6,N
1498623935.7,286047011.5,N
1498623955.6,286047011.7,N
1498623975.4,286047014.0,N
1498623995.2,286047011.0,N
1498624015.1,286047010.6,N
1498624016.0,286047010.6,N
1498624035.8,286047010.0,N
1498624055.6,286047009.3,N
1498624075.5,286047012.0,N
1498624095.3,286047013.5,N
1498624115.1,286047013.3,N
1498624135.8,286047012.2,N
1498624155.7,286047011.7,N
1498624175.5,286047011.9,N
1498624195.3,286047009.8,N
1498624215.2,286047010.8,N
1498624235.9,286047007.8,N
1498624255.7,286047008.4,N
1498624275.6,286047008.3,N
1498624295.4,286047008.8,N
1498624315.2,286047010.5,N
1498624335.1,286047011.7,N
1498624336.0,286047011.7,N
1498624355.8,286047012.6,N
1498624375.6,286047012.7,N
1498624395.5,286047013.4,N
1498624415.3,286047013.6,N
1498624435.1,286047011.6,N
1498624455.9,286047009.8,N
1498624475.7,286047009.3,N
1498624495.5,286047011.8,N
1498624515.3,286047014.6,N
1498624535.2,286047014.5,N
1498624555.0,286047018.8,N
1498624555.9,286047018.8,N
1498624575.7,286047018.1,N
1498624595.6,286047020.4,N
1498624615.4,286047017.9,N
1498624635.2,286047016.6,N
1498624655.1,286047016.6,N
1498624656.0,286047016.6,N
1498624675.8,286047017.9,N
1498624695.6,286047018.4,N
1498624715.5,286047018.6,N
1498624735.3,286047016.7,N
1498624755.1,286047015.7,N
1498624775.9,286047017.9,N
1498624795.7,286047019.5,N
1498624815.5,286047015.8,N
1498624835.3,286047018.1,N
1498624855.2,286047015.8,N
1498624875.0,286047015.8,N
1498624875.9,286047015.8,N
1498624895.7,286047014.6,N
1498624915.6,286047011.3,N
1498624935.4,286047012.2,N
1498624955.2,286047014.0,N
1498624975.1,286047012.7,N
1498624976.0,286047012.7,N
1498624995.8,286047012.5,N
1498625015.6,286047013.6,N
1498625035.5,286047012.5,N
1498625055.3,286047011.8,N
1498625075.1,286047013.3,N
1498625095.8,286047013.4,N
1498625115.7,286047012.8,N
1498625135.5,286047013.7,N
1498625155.3,286047013.7,N
1498625175.2,286047012.3,N
1498625195.9,286047012.0,N
1498625215.7,286047011.3,N
1498625235.6,286047010.9,N
1498625255.4,286047013.9,N
1498625275.2,286047013.7,N
1498625295.1,286047013.1,N
1498625296.0,286047013.1,N
1498625315.8,286047013.0,N
1498625335.6,286047012.8,N
1498625355.5,286047014.3,N
1498625375.3,286047014.4,N
1498625395.1,286047012.9,N
1498625415.8,286047012.8,N
1498625435.7,286047014.1,N
1498625455.5,286047014.8,N
1498625475.3,286047015.3,N
1498625495.2,286047012.6,N
1498625515.9,286047017.1,N
1498625535.7,286047014.2,N
1498625555.6,286047013.2,N
1498625575.4,286047011.0,N
1498625595.2,286047015.2,N
1498625615.1,286047017.2,N
1498625616.0,286047017.2,N
1498625635.8,286047016.9,N
1498625655.6,286047018.7,N
1498625675.4,286047014.5,N
1498625695.3,286047015.0,N
1498625715.1,286047014.4,N
1498625735.8,286047016.7,N
1498625755.7,286047013.1,N
1498625775.5,286047012.9,N
1498625795.3,286047012.1,N
1498625815.2,286047012.0,N
1498625835.9,286047014.7,N
1498625855.7,286047016.8,N
1498625875.6,286047018.8,N
1498625895.4,286047018.0,N
1498625915.2,286047018.5,N
1498625935.1,286047020.0,N
1498625936.0,286047020.0,N
1498625955.8,286047019.3,N
1498625975.6,286047021.7,N
1498625995.5,286047021.1,N
